TimeCST,TemperatureF,Dew PointF,Humidity,Sea Level PressureIn,VisibilityMPH,Wind Direction,Wind SpeedMPH,Gust SpeedMPH,PrecipitationIn,Events,Conditions,WindDirDegrees,DateUTC
12:53 AM,39.9,33.1,77,30.38,10.0,Calm,Calm,-,N/A,,Clear,0,2012-11-16 06:53:00
1:53 AM,37.9,33.1,83,30.38,10.0,Calm,Calm,-,N/A,,Clear,0,2012-11-16 07:53:00
2:53 AM,37.9,33.1,83,30.39,10.0,Calm,Calm,-,N/A,,Clear,0,2012-11-16 08:53:00
3:53 AM,34.0,30.9,89,30.39,10.0,Calm,Calm,-,N/A,,Clear,0,2012-11-16 09:53:00
4:53 AM,34.0,30.0,85,30.41,10.0,Calm,Calm,-,N/A,,Clear,0,2012-11-16 10:53:00
5:53 AM,33.1,28.9,85,30.42,10.0,Calm,Calm,-,N/A,,Clear,0,2012-11-16 11:53:00
6:53 AM,32.0,28.9,88,30.43,10.0,Calm,Calm,-,N/A,,Clear,0,2012-11-16 12:53:00
7:53 AM,37.0,33.1,86,30.44,10.0,Calm,Calm,-,N/A,,Clear,0,2012-11-16 13:53:00
8:53 AM,42.1,36.0,79,30.45,10.0,Calm,Calm,-,N/A,,Clear,0,2012-11-16 14:53:00
9:53 AM,48.9,37.0,64,30.46,10.0,Calm,Calm,-,N/A,,Clear,0,2012-11-16 15:53:00
10:53 AM,55.0,36.0,49,30.45,10.0,Calm,Calm,-,N/A,,Clear,0,2012-11-16 16:53:00
11:53 AM,59.0,33.1,38,30.42,10.0,NE,4.6,-,N/A,,Clear,50,2012-11-16 17:53:00
12:53 PM,62.1,30.0,30,30.40,10.0,NNE,6.9,-,N/A,,Clear,30,2012-11-16 18:53:00
1:53 PM,63.0,28.9,28,30.38,10.0,NNE,5.8,-,N/A,,Clear,30,2012-11-16 19:53:00
2:53 PM,64.0,26.1,24,30.36,10.0,Calm,Calm,-,N/A,,Clear,0,2012-11-16 20:53:00
3:53 PM,64.0,24.1,22,30.37,10.0,NE,4.6,-,N/A,,Clear,50,2012-11-16 21:53:00
4:53 PM,59.0,27.0,29,30.36,10.0,NE,4.6,-,N/A,,Clear,40,2012-11-16 22:53:00
5:53 PM,54.0,28.0,37,30.37,10.0,Calm,Calm,-,N/A,,Clear,0,2012-11-16 23:53:00
6:53 PM,48.9,30.9,50,30.38,10.0,Calm,Calm,-,N/A,,Clear,0,2012-11-17 00:53:00
7:53 PM,45.0,32.0,60,30.38,10.0,Calm,Calm,-,N/A,,Clear,0,2012-11-17 01:53:00
8:53 PM,43.0,30.9,62,30.40,10.0,Calm,Calm,-,N/A,,Clear,0,2012-11-17 02:53:00
9:53 PM,41.0,33.1,73,30.41,10.0,Calm,Calm,-,N/A,,Clear,0,2012-11-17 03:53:00
10:53 PM,37.9,32.0,79,30.40,10.0,ENE,4.6,-,N/A,,Clear,60,2012-11-17 04:53:00
11:53 PM,41.0,34.0,76,30.41,10.0,NE,3.5,-,N/A,,Clear,40,2012-11-17 05:53:00